[[{"header":{"parameterUnit":"m.s-1","parameterCategory":1,"la1":30.2991,"la2":30.254,"lo1":-89.0895,"lo2":-89.0444,"dy":0.0017,"dx":0.0017,"nx":28,"ny":28,"refTime":"2024-12-05T03:00:00:Z","depth":0,"parameterNumber":2,"parameterNumberName":"U-component_of_WINDS"},"data":[0,0,0,0,0,0,0,0,0,0,0,0,0,0,0,0,0,0,0,0,0,0,0,0,0,0,0,0,0,0,0,0,0,0,0,0,0,0,0,0,0,0,0,0,0,0,0,0,0,0,0,0,0,0,0,0,0,0,-1.4244,-1.4245,0,-1.4366,-1.4368,-1.4369,-1.4364,-1.4363,-1.4361,-1.4359,-1.4486,-1.4491,-1.4496,0,0,0,0,0,0,0,0,0,0,0,0,0,-1.4005,-1.4009,-1.4244,-1.4245,-1.4247,-1.4366,-1.4368,-1.437,-1.4365,-1.4363,-1.436,-1.4358,-1.4484,-1.449,-1.4496,0,0,0,0,0,0,0,0,0,0,0,0,0,-1.4116,-1.4011,-1.4243,-1.4259,-1.4261,-1.4366,-1.4368,-1.437,-1.4365,-1.4362,-1.436,-1.4357,-1.4482,-1.449,-1.4497,-1.4595,0,0,-1.452,-1.4523,0,0,0,0,0,0,0,0,-1.411,-1.4125,-1.4255,-1.4258,-1.4261,-1.4347,-1.433,-1.4445,-1.4366,-1.4326,-1.4359,-1.4356,-1.4442,-1.4453,-1.4481,-1.4601,-1.4606,-1.452,-1.4525,-1.4528,-1.453,0,0,0,0,0,0,0,-1.4102,-1.412,-1.4292,-1.4257,-1.426,-1.4259,-1.4272,-1.4352,-1.4397,-1.4329,-1.4329,-1.4343,-1.4443,-1.4474,-1.4484,-1.4608,-1.452,-1.4527,-1.4532,-1.4534,-1.4813,-1.4816,0,0,0,0,0,0,-1.4091,-1.4113,-1.4288,-1.4296,-1.4177,-1.4266,-1.428,-1.4322,-1.4396,-1.4405,-1.4346,-1.4343,-1.4463,-1.4476,-1.4489,-1.4609,-1.4528,-1.4535,-1.4539,-1.481,-1.4814,-1.4817,0,0,0,0,0,0,-1.4086,-1.4107,-1.4283,-1.4205,-1.4227,-1.4273,-1.432,-1.4326,-1.4357,-1.4408,-1.4416,-1.4369,-1.4461,-1.4478,-1.4568,-1.4613,-1.4539,-1.4545,-1.4807,-1.4811,-1.4815,-1.4849,0,0,0,0,0,0,-1.4079,-1.4105,-1.4143,-1.4206,-1.4231,-1.4361,-1.4323,-1.433,-1.437,-1.4367,-1.4433,-1.4441,-1.446,-1.4557,-1.4576,-1.4622,-1.4551,-1.4803,-1.4809,-1.4814,-1.4844,-1.4854,-1.4862,0,0,0,0,0,-1.4071,-1.4148,-1.4145,-1.4166,-1.428,-1.4364,-1.4379,-1.4399,-1.4373,-1.4412,-1.4445,-1.4439,-1.4604,-1.4566,-1.4587,-1.4636,-1.48,-1.4807,-1.4814,-1.484,-1.4852,-1.4862,0,0,0,0,0,0,-1.409,-1.4156,-1.4154,-1.4253,-1.4303,-1.4363,-1.4412,-1.4411,-1.4469,-1.4465,-1.4488,-1.4502,-1.4593,-1.4623,-1.458,-1.4734,-1.4699,-1.471,-1.4712,-1.4724,-1.4732,-1.4724,-1.4557,0,0,0,0,0,-1.4106,-1.4169,-1.4223,-1.4305,-1.433,-1.4367,-1.4404,-1.4415,-1.4468,-1.4489,-1.4528,-1.458,-1.4643,-1.4685,-1.4746,-1.4847,-1.4861,-1.4891,-1.49,-1.4907,-1.4917,-1.4973,-1.4987,-1.4839,-1.4838,-1.4838,0,0,-1.4139,-1.4183,-1.4222,-1.431,-1.435,-1.4415,-1.4385,-1.4454,-1.4503,-1.45,-1.4588,-1.4618,-1.4676,-1.4772,-1.4817,-1.4801,-1.4961,-1.4915,-1.4921,-1.4927,-1.4981,-1.4995,-1.5008,-1.4843,-1.4842,-1.4841,0,0,-1.4234,-1.4273,-1.4346,-1.4386,-1.4446,-1.4469,-1.4487,-1.4547,-1.4567,-1.4654,-1.4654,-1.4711,-1.4819,-1.4861,-1.4897,-1.5004,-1.5002,-1.5023,-1.5072,-1.5126,-1.5138,-1.5148,-1.5188,-1.5202,-1.5033,-1.5033,-1.5033,0,-1.4268,-1.4366,-1.4384,-1.4454,-1.4493,-1.4492,-1.4566,-1.4604,-1.4681,-1.4708,-1.4688,-1.4824,-1.4864,-1.497,-1.4996,-1.5024,-1.5045,-1.5018,-1.5135,-1.5145,-1.5155,-1.5193,-1.5208,-1.5035,-1.5035,-1.5035,-1.5034,0,-1.4405,-1.4472,-1.4524,-1.4598,-1.4643,-1.4715,-1.4744,-1.4786,-1.4793,-1.4818,-1.4907,-1.4954,-1.5025,-1.505,-1.5057,-1.5157,-1.5145,-1.5129,-1.5095,-1.5172,-1.5208,-1.5222,-1.5039,-1.5038,-1.5037,-1.5036,0,0,-1.4518,-1.46,-1.4619,-1.4652,-1.4717,-1.477,-1.484,-1.4909,-1.4946,-1.4998,-1.5059,-1.5149,-1.5135,-1.5175,-1.5187,-1.5234,-1.5317,-1.5213,-1.5215,-1.5232,-1.543,-1.5443,-1.546,-1.5314,-1.5317,-1.5319,-1.5426,0,-1.4621,-1.4747,-1.4765,-1.4877,-1.4939,-1.4938,-1.5,-1.5046,-1.5071,-1.5128,-1.5155,-1.5219,-1.5195,-1.5219,-1.5266,-1.5297,-1.5358,-1.529,-1.5372,-1.5375,-1.536,-1.5478,-1.5492,-1.5591,-1.544,-1.5442,-1.5444,0,-1.4758,-1.4814,-1.4932,-1.4988,-1.5014,-1.507,-1.5134,-1.5187,-1.5239,-1.5254,-1.5298,-1.5303,-1.5376,-1.5336,-1.5438,-1.5391,-1.5425,-1.5446,-1.545,-1.546,-1.5416,-1.5493,-1.5622,-1.5638,-1.5466,-1.5464,-1.5463,0,-1.483,-1.4934,-1.5019,-1.5047,-1.5114,-1.5153,-1.5182,-1.5232,-1.5272,-1.5327,-1.5353,-1.5415,-1.5451,-1.5499,-1.5521,-1.5489,-1.5621,-1.5583,-1.5636,-1.5636,-1.5666,-1.5665,-1.5804,-1.5685,-1.5685,-1.5684,-1.5684,0,-1.4944,-1.5017,-1.5052,-1.5104,-1.5185,-1.5204,-1.5284,-1.5312,-1.5355,-1.5413,-1.5414,-1.5468,-1.5493,-1.555,-1.5567,-1.5649,-1.5664,-1.5679,-1.5683,-1.568,-1.5678,-1.5704,-1.5699,-1.5688,-1.5687,-1.5687,-1.5686,0,-1.504,-1.5066,-1.5158,-1.5213,-1.5229,-1.5286,-1.5333,-1.5383,-1.5406,-1.5479,-1.5497,-1.5534,-1.5601,-1.5627,-1.5709,-1.5721,-1.5816,-1.5813,-1.5798,-1.58,-1.5852,-1.5847,-1.6015,-1.6039,-1.5902,-1.5903,-1.5904,0,-1.5113,-1.5168,-1.5229,-1.5267,-1.5298,-1.536,-1.54,-1.5419,-1.5461,-1.5523,-1.5566,-1.5633,-1.5688,-1.5796,-1.583,-1.5893,-1.5893,-1.5947,-1.5903,-1.5898,-1.5896,-1.5893,-1.5899,-1.5956,-1.5958,-1.5959,-1.596,0,-1.5238,-1.5248,-1.5306,-1.5368,-1.5416,-1.5465,-1.5514,-1.5545,-1.5572,-1.5618,-1.5687,-1.5729,-1.5813,-1.5879,-1.5943,-1.5974,-1.5972,-1.5973,-1.5989,-1.5988,-1.5977,-1.5985,-1.5823,-1.597,-1.5969,-1.5968,-1.5968,-1.5967,-1.5326,-1.5375,-1.5425,-1.5489,-1.5527,-1.5572,-1.5622,-1.5651,-1.5708,-1.5778,-1.5785,-1.5859,-1.5909,-1.5994,-1.6027,-1.6085,-1.6071,-1.6093,-1.6099,-1.6105,-1.611,-1.5966,-1.6096,-1.6096,-1.6096,-1.6096,-1.6095,0,-1.5453,-1.5485,-1.5543,-1.561,-1.5661,-1.5652,-1.5705,-1.5748,-1.5813,-1.5859,-1.5912,-1.5991,-1.6055,-1.6093,-1.6157,-1.6196,-1.6197,-1.6212,-1.6211,-1.6218,-1.6118,-1.6099,-1.6211,-1.6211,-1.6211,-1.6211,-1.6211,-1.6211,-1.5525,-1.5609,-1.5624,-1.5726,-1.5757,-1.5829,-1.586,-1.5901,-1.5938,-1.6026,-1.6079,-1.6102,-1.6145,-1.6212,-1.627,-1.628,-1.6304,-1.6321,-1.633,-1.6237,-1.6225,-1.6214,-1.6196,-1.6326,-1.6326,-1.6425,-1.6426,-1.6426]},{"header":{"parameterUnit":"m.s-1","parameterCategory":1,"la1":30.2991,"la2":30.254,"lo1":-89.0895,"lo2":-89.0444,"dy":0.0017,"dx":0.0017,"nx":28,"ny":28,"refTime":"2024-12-05T03:00:00:Z","depth":0,"parameterNumber":3,"parameterNumberName":"V-component_of_WINDS"},"data":[0,0,0,0,0,0,0,0,0,0,0,0,0,0,0,0,0,0,0,0,0,0,0,0,0,0,0,0,0,0,0,0,0,0,0,0,0,0,0,0,0,0,0,0,0,0,0,0,0,0,0,0,0,0,0,0,0,0,-7.5137,-7.5138,0,-7.5268,-7.5269,-7.5271,-7.5195,-7.5192,-7.5188,-7.5185,-7.5313,-7.532,-7.5327,0,0,0,0,0,0,0,0,0,0,0,0,0,-7.4815,-7.4822,-7.5136,-7.5138,-7.514,-7.5268,-7.5269,-7.5271,-7.5196,-7.5192,-7.5187,-7.5183,-7.5311,-7.5319,-7.5327,0,0,0,0,0,0,0,0,0,0,0,0,0,-7.4951,-7.4824,-7.5136,-7.5118,-7.5118,-7.5267,-7.5269,-7.5272,-7.5197,-7.5192,-7.5186,-7.5181,-7.5308,-7.5318,-7.5329,-7.5502,0,0,-7.536,-7.5364,0,0,0,0,0,0,0,0,-7.4944,-7.4963,-7.5119,-7.5119,-7.5119,-7.521,-7.5203,-7.5349,-7.5198,-7.5167,-7.5185,-7.5178,-7.5283,-7.5295,-7.5331,-7.5508,-7.5513,-7.5361,-7.5367,-7.5371,-7.5374,0,0,0,0,0,0,0,-7.4935,-7.4957,-7.5188,-7.5121,-7.5122,-7.5101,-7.5115,-7.523,-7.5254,-7.5169,-7.5164,-7.5181,-7.5282,-7.5322,-7.5334,-7.5515,-7.536,-7.537,-7.5376,-7.538,-7.584,-7.5846,0,0,0,0,0,0,-7.4927,-7.495,-7.5184,-7.5192,-7.5016,-7.5112,-7.5126,-7.5186,-7.5252,-7.5257,-7.5185,-7.5177,-7.5307,-7.5322,-7.5338,-7.5546,-7.5371,-7.5381,-7.5387,-7.5834,-7.5841,-7.5848,0,0,0,0,0,0,-7.4921,-7.4949,-7.5179,-7.507,-7.5098,-7.5123,-7.5191,-7.5192,-7.5231,-7.5265,-7.5268,-7.5222,-7.5303,-7.5324,-7.5462,-7.5549,-7.5386,-7.5395,-7.5827,-7.5836,-7.5845,-7.5963,0,0,0,0,0,0,-7.4912,-7.4947,-7.5014,-7.5072,-7.5104,-7.5303,-7.5196,-7.5198,-7.525,-7.524,-7.53,-7.5305,-7.53,-7.5447,-7.5472,-7.556,-7.5403,-7.5819,-7.5831,-7.5842,-7.5951,-7.5975,-7.5995,0,0,0,0,0,-7.49,-7.5041,-7.5018,-7.5047,-7.5189,-7.5308,-7.5326,-7.532,-7.5257,-7.5325,-7.5346,-7.5303,-7.5536,-7.5462,-7.549,-7.5582,-7.5814,-7.5828,-7.5841,-7.5941,-7.597,-7.5994,0,0,0,0,0,0,-7.4991,-7.5048,-7.5024,-7.5187,-7.5244,-7.5295,-7.538,-7.535,-7.5424,-7.5411,-7.5398,-7.5412,-7.5557,-7.5583,-7.55,-7.5753,-7.5665,-7.5684,-7.5731,-7.5759,-7.578,-7.5771,-7.5411,0,0,0,0,0,-7.503,-7.5124,-7.5168,-7.5308,-7.5338,-7.5354,-7.5406,-7.5396,-7.5453,-7.5476,-7.5507,-7.5563,-7.5648,-7.5705,-7.5785,-7.5954,-7.5966,-7.6031,-7.6053,-7.6071,-7.6088,-7.6179,-7.6209,-7.5893,-7.5893,-7.5892,0,0,-7.5112,-7.5155,-7.5214,-7.5328,-7.537,-7.5466,-7.5375,-7.548,-7.555,-7.5491,-7.5625,-7.565,-7.571,-7.5865,-7.5935,-7.5891,-7.6178,-7.6088,-7.6102,-7.611,-7.6196,-7.6226,-7.6253,-7.5902,-7.59,-7.5899,0,0,-7.531,-7.5352,-7.5474,-7.5519,-7.5585,-7.5595,-7.5624,-7.5681,-7.5696,-7.583,-7.5787,-7.587,-7.6017,-7.6063,-7.6105,-7.632,-7.6283,-7.6346,-7.6461,-7.655,-7.6575,-7.6597,-7.6674,-7.6701,-7.6363,-7.6364,-7.6364,0,-7.5403,-7.5548,-7.5539,-7.5649,-7.5699,-7.5652,-7.5775,-7.5818,-7.5906,-7.5941,-7.5892,-7.6076,-7.6114,-7.6278,-7.6331,-7.6367,-7.6399,-7.634,-7.6572,-7.6594,-7.6614,-7.6688,-7.6717,-7.6371,-7.637,-7.637,-7.6369,0,-7.5658,-7.5759,-7.5849,-7.5938,-7.5999,-7.6114,-7.6122,-7.6184,-7.6169,-7.6183,-7.632,-7.6363,-7.6452,-7.649,-7.6475,-7.6653,-7.6624,-7.6574,-7.6484,-7.6652,-7.6721,-7.6749,-7.6382,-7.6379,-7.6377,-7.6375,0,0,-7.5917,-7.6001,-7.6034,-7.6074,-7.6144,-7.6221,-7.6333,-7.6422,-7.6475,-7.6537,-7.663,-7.6756,-7.6711,-7.6759,-7.6749,-7.6827,-7.6995,-7.6767,-7.6768,-7.6808,-7.7193,-7.7231,-7.7263,-7.697,-7.6976,-7.698,-7.7188,0,-7.612,-7.6319,-7.6315,-7.6499,-7.6592,-7.6548,-7.6646,-7.6698,-7.6715,-7.6794,-7.6811,-7.6901,-7.6834,-7.6863,-7.6938,-7.6959,-7.7072,-7.6943,-7.7056,-7.706,-7.7043,-7.7299,-7.734,-7.7534,-7.7214,-7.7219,-7.7222,0,-7.6384,-7.6458,-7.6652,-7.6708,-7.6746,-7.6835,-7.6916,-7.6993,-7.705,-7.7057,-7.7111,-7.7089,-7.7201,-7.7108,-7.7262,-7.7175,-7.722,-7.7237,-7.7245,-7.7255,-7.7152,-7.7317,-7.7595,-7.7625,-7.7264,-7.7261,-7.7258,0,-7.6554,-7.6701,-7.6837,-7.6872,-7.6941,-7.7004,-7.7035,-7.7088,-7.7141,-7.7211,-7.7246,-7.7327,-7.7371,-7.7434,-7.7433,-7.7366,-7.7589,-7.7496,-7.7597,-7.7597,-7.7646,-7.7643,-7.7936,-7.7675,-7.7674,-7.7674,-7.7673,0,-7.6782,-7.6902,-7.6914,-7.6998,-7.7131,-7.7124,-7.7255,-7.728,-7.7327,-7.7413,-7.7379,-7.746,-7.7454,-7.7536,-7.7535,-7.7663,-7.7683,-7.769,-7.7689,-7.7694,-7.7693,-7.7724,-7.7711,-7.7681,-7.768,-7.7678,-7.7677,0,-7.6995,-7.7008,-7.7153,-7.7207,-7.7223,-7.7319,-7.7364,-7.7442,-7.7455,-7.7565,-7.759,-7.761,-7.7704,-7.771,-7.7818,-7.7818,-7.7973,-7.7956,-7.7954,-7.7951,-7.8051,-7.8042,-7.8375,-7.8418,-7.8128,-7.8131,-7.8133,0,-7.714,-7.7232,-7.7296,-7.7353,-7.7388,-7.7479,-7.7534,-7.753,-7.7589,-7.7662,-7.7731,-7.7822,-7.7895,-7.8047,-7.807,-7.8152,-7.8137,-7.8248,-7.8149,-7.8152,-7.814,-7.8135,-7.8144,-7.8268,-7.8271,-7.8274,-7.8276,0,-7.7396,-7.7398,-7.7479,-7.7564,-7.7632,-7.7697,-7.7758,-7.7806,-7.7809,-7.7876,-7.7973,-7.803,-7.8141,-7.8232,-7.8312,-7.8341,-7.831,-7.8307,-7.8334,-7.8341,-7.8336,-7.8341,-7.8007,-7.8299,-7.8297,-7.8295,-7.8294,-7.8293,-7.7579,-7.7659,-7.7718,-7.781,-7.7856,-7.7914,-7.7991,-7.8014,-7.8096,-7.8188,-7.818,-7.8287,-7.8341,-7.8446,-7.8483,-7.8565,-7.8527,-7.8567,-7.8577,-7.8587,-7.8598,-7.8323,-7.8579,-7.8579,-7.8578,-7.8577,-7.8577,0,-7.7834,-7.7869,-7.7954,-7.8042,-7.8115,-7.808,-7.8146,-7.8208,-7.8304,-7.8358,-7.8431,-7.8543,-7.863,-7.8661,-7.8746,-7.8806,-7.8793,-7.8828,-7.8824,-7.8831,-7.8627,-7.8595,-7.8837,-7.8837,-7.8837,-7.8837,-7.8837,-7.8837,-7.7975,-7.8108,-7.8117,-7.8273,-7.8307,-7.8414,-7.8454,-7.8507,-7.8551,-7.8677,-7.8751,-7.8771,-7.8816,-7.8904,-7.8982,-7.8988,-7.9021,-7.9063,-7.9063,-7.8872,-7.8846,-7.8821,-7.8791,-7.907,-7.907,-7.9261,-7.9263,-7.9264]}]]